Waarnemingen

Advertentie
Mijn weer
Nancy/Ochey, Frankrijk (7181): temperatuur & dauwpunt: 13.04.2019 06:00:00 - 19.04.2019 06:00:00 (CEST)Nancy/Ochey, Frankrijk (7181): temperatuur 5cm: 13.04.2019 06:00:00 - 19.04.2019 06:00:00 (CEST)Nancy/Ochey, Frankrijk (7181): temperatuur -20cm: 13.04.2019 06:00:00 - 19.04.2019 06:00:00 (CEST)Nancy/Ochey, Frankrijk (7181): windsnelheid & windstoten: 13.04.2019 06:00:00 - 19.04.2019 06:00:00 (CEST)Nancy/Ochey, Frankrijk (7181): windrichting: 13.04.2019 06:00:00 - 19.04.2019 06:00:00 (CEST)Nancy/Ochey, Frankrijk (7181): luchtdruk: 13.04.2019 06:00:00 - 19.04.2019 06:00:00 (CEST)Nancy/Ochey, Frankrijk (7181): zicht: 13.04.2019 06:00:00 - 19.04.2019 06:00:00 (CEST)Nancy/Ochey, Frankrijk (7181): neerslag: 13.04.2019 06:00:00 - 19.04.2019 06:00:00 (CEST)
Datum & Tijd tt [°C] td [°C] tt 5cm [°C] tt -20cm [°C] ff [km/u] ff [kn] fx [km/u] fx [kn] dd ppp [hPa] vv [km] rr [mm]
19.04.2019 06:00:00 7,7 3,7 0,7 10,1 3 2 5 3 NO 1024,8 34 0,0
19.04.2019 05:00:00 9,5 4,5 1,4 10,1 2 1 5 3 NNO 1024,2 36 0,0
19.04.2019 04:00:00 9,3 4,5 1,8 10,1 0 0 8 5 N 1023,7 28 0,0
19.04.2019 03:00:00 10,9 4,4 2,2 10,1 6 3 12 7 O 1023,2 42 0,0
19.04.2019 02:00:00 12,2 4,4 3,8 10,0 9 5 14 8 O 1022,9 41 0,0
19.04.2019 01:00:00 13,5 4,6 7,4 10,0 3 2 25 13 NNW 1022,4 52 0,0
19.04.2019 00:00:00 15,7 4,4 14,1 9,9 14 8 24 13 O 1021,9 48 0,0
18.04.2019 23:00:00 15,9 4,9 14,3 9,9 13 7 25 14 O 1021,8 44 0,0
18.04.2019 22:00:00 16,4 5,6 14,8 9,8 14 8 24 13 O 1021,6 42 0,0
18.04.2019 21:00:00 17,1 6,3 15,3 9,7 13 7 28 15 O 1021,1 39 0,0
18.04.2019 20:00:00 18,9 6,4 17,6 9,6 15 8 33 18 ONO 1020,2 43 0,0
18.04.2019 19:00:00 20,1 6,8 21,6 9,5 22 12 34 18 O 1019,7 38 0,0
18.04.2019 18:00:00 20,9 5,3 23,9 9,4 18 10 32 18 ONO 1019,4 20 0,0
18.04.2019 17:00:00 21,3 5,2 25,8 9,4 17 9 35 19 O 1019,3 33 0,0
18.04.2019 16:00:00 20,9 4,4 26,0 9,3 18 10 34 18 O 1019,4 20 0,0
18.04.2019 15:00:00 20,5 4,5 25,2 9,3 19 10 36 20 O 1019,7 20 0,0
18.04.2019 14:00:00 19,3 5,7 24,9 9,2 17 9 29 15 O 1020,1 31 0,0
18.04.2019 13:00:00 17,9 5,5 22,9 9,3 12 7 28 15 ONO 1020,6 8 0,0
18.04.2019 12:00:00 16,7 3,4 21,0 9,3 12 7 21 12 O 1021,1 20 0,0
18.04.2019 11:00:00 14,8 4,2 18,3 9,3 12 6 21 12 O 1021,6 20 0,0
18.04.2019 10:00:00 13,6 2,5 15,9 9,3 11 6 25 14 O 1021,8 42 0,0
18.04.2019 09:00:00 12,0 3,0 11,7 9,4 12 6 20 11 NO 1021,8 22 0,0
18.04.2019 08:00:00 9,9 4,1 2,5 9,4 5 3 11 6 O 1022,0 20 0,0
18.04.2019 07:00:00 7,2 5,2 0,6 9,4 3 2 11 6 ZZW 1021,9 6 0,0
18.04.2019 06:00:00 7,3 5,9 1,0 9,4 3 2 10 5 N 1021,4 7 0,0
18.04.2019 05:00:00 8,0 6,1 1,4 9,4 3 1 10 6 NNW 1021,3 7 0,0
18.04.2019 04:00:00 8,8 6,4 2,8 9,4 3 2 14 8 N 1021,1 10 0,0
18.04.2019 03:00:00 10,1 7,3 3,8 9,3 3 2 19 11 ZZO 1020,7 12 0,0
18.04.2019 02:00:00 11,6 7,5 9,8 9,3 12 6 21 11 ONO 1020,2 14 0,0
18.04.2019 01:00:00 12,0 7,9 10,6 9,2 13 7 21 11 O 1020,3 15 0,0
18.04.2019 00:00:00 12,4 8,3 10,9 9,2 12 7 24 13 O 1020,4 16 0,0
17.04.2019 23:00:00 12,7 8,8 11,4 9,1 16 8 31 17 O 1020,3 27 0,0
17.04.2019 22:00:00 12,9 8,4 11,6 9,0 12 6 21 11 O 1020,2 58 0,0
17.04.2019 21:00:00 14,0 8,0 12,6 8,9 13 7 23 12 O 1019,7 56 0,0
17.04.2019 20:00:00 15,5 7,8 14,4 8,9 14 7 30 16 O 1019,2 60 0,0
17.04.2019 19:00:00 17,0 7,9 17,2 8,8 16 9 26 14 O 1019,0 40 0,0
17.04.2019 18:00:00 17,1 7,7 18,7 8,7 10 5 27 15 O 1019,1 18 0,0
17.04.2019 17:00:00 17,1 7,4 17,3 8,6 14 8 27 14 O 1019,3 60 0,0
17.04.2019 16:00:00 17,1 8,5 18,8 8,6 7 4 22 12 O 1019,6 55 0,0
17.04.2019 15:00:00 17,3 9,0 17,3 8,5 8 4 21 11 ONO 1019,9 50 0,0
17.04.2019 14:00:00 14,6 8,3 17,2 8,5 13 7 27 14 O 1020,6 20 0,0
17.04.2019 13:00:00 14,5 7,8 16,5 8,5 14 8 25 14 O 1020,8 40 0,0
17.04.2019 12:00:00 13,4 8,5 15,6 8,5 9 5 16 9 O 1021,3 19 0,0
17.04.2019 11:00:00 12,3 8,9 11,4 8,5 5 3 11 6 ZZO 1021,6 19 0,0
17.04.2019 10:00:00 10,3 8,9 10,7 8,5 6 3 11 6 ZZO 1021,9 12 0,0
17.04.2019 09:00:00 9,5 8,9 9,0 8,5 5 3 10 5 ZO 1021,6 6 0,0
17.04.2019 08:00:00 8,7 8,2 7,9 8,4 6 3 10 6 OZO 1021,5 5 0,0
17.04.2019 07:00:00 8,4 7,8 7,7 8,4 6 3 9 5 O 1020,9 3,6 0,0
17.04.2019 06:00:00 8,6 8,0 7,5 8,4 5 3 8 4 ZO 1020,5 5 0,0
17.04.2019 05:00:00 8,6 8,0 7,2 8,4 0 0 12 6 N 1020,5 4,3 0,0
17.04.2019 04:00:00 8,6 8,0 7,1 8,4 8 5 11 6 ZZW 1020,5 5 0,0
17.04.2019 03:00:00 8,4 7,8 6,9 8,4 10 6 16 9 ZZW 1020,5 4,4 0,0
17.04.2019 02:00:00 8,9 8,1 8,3 8,3 11 6 18 10 ZZW 1020,4 2,5 0,0
17.04.2019 01:00:00 9,0 8,2 8,6 8,3 12 6 16 9 ZW 1020,2 8 0,0
17.04.2019 00:00:00 9,4 8,8 8,9 8,2 9 5 17 9 WZW 1019,9 10 0,4
16.04.2019 23:00:00 9,9 9,3 9,4 8,2 10 5 27 15 ZW 1019,4 4,6 0,4
16.04.2019 22:00:00 9,9 9,3 9,4 8,2 16 9 24 13 Z 1019,1 36 0,0
16.04.2019 21:00:00 9,6 9,1 9,3 8,1 12 7 21 12 ZZO 1018,6 12 0,2
16.04.2019 20:00:00 9,6 9,1 9,4 8,1 13 7 23 12 ZZO 1018,1 2,4 0,4
16.04.2019 19:00:00 9,7 8,9 9,7 8,0 13 7 23 12 ZZO 1017,8 6 0,6
16.04.2019 18:00:00 9,8 8,6 9,8 8,0 17 9 26 14 ZZO 1017,7 8 0,8
16.04.2019 17:00:00 10,0 8,3 9,8 8,0 11 6 24 13 ZZO 1017,5 10 1,2
16.04.2019 16:00:00 10,4 7,8 10,0 7,9 16 9 27 15 ZZO 1017,4 16 0,2
16.04.2019 15:00:00 10,7 8,3 10,3 7,9 14 7 27 15 ZZO 1017,5 20 0,6
16.04.2019 14:00:00 10,6 7,7 10,4 7,9 20 11 31 17 ZZW 1017,5 20 0,4
16.04.2019 13:00:00 10,4 7,5 9,9 7,9 13 7 37 20 Z 1017,5 19 0,2
16.04.2019 12:00:00 11,3 6,2 11,8 7,9 16 9 35 19 Z 1017,2 44 0,0
16.04.2019 11:00:00 11,0 5,5 10,7 7,9 26 14 35 19 ZW 1017,1 47 0,0
16.04.2019 10:00:00 11,3 5,4 12,2 7,9 25 13 36 19 ZW 1016,4 51 0,0
16.04.2019 09:00:00 10,6 4,9 9,4 7,9 17 9 25 13 ZZW 1016,1 41 0,0
16.04.2019 08:00:00 9,2 4,4 6,5 7,9 14 7 25 14 Z 1016,1 37 0,0
16.04.2019 07:00:00 8,4 3,8 4,8 7,9 13 7 25 13 Z 1015,7 32 0,0
16.04.2019 06:00:00 9,1 4,1 6,2 7,9 21 11 35 19 ZZO 1015,1 34 0,0
16.04.2019 05:00:00 8,2 3,4 3,7 7,9 16 9 31 17 ZZO 1015,6 20 0,0
16.04.2019 04:00:00 7,4 3,3 2,8 7,9 14 7 19 10 ZZO 1016,1 16 0,0
16.04.2019 03:00:00 6,4 3,4 1,4 7,8 10 6 14 7 ZO 1016,3 13 0,0
16.04.2019 02:00:00 7,2 3,2 1,0 7,8 6 3 11 6 OZO 1016,4 15 0,0
16.04.2019 01:00:00 8,2 3,2 1,3 7,7 3 2 12 7 ZO 1016,0 17 0,0
16.04.2019 00:00:00 9,6 3,3 4,3 7,7 8 4 18 10 O 1015,5 19 0,0
15.04.2019 23:00:00 10,7 3,7 7,6 7,6 11 6 21 11 O 1015,5 23 0,0
15.04.2019 22:00:00 10,8 3,3 7,9 7,5 14 7 20 11 O 1016,0 28 0,0
15.04.2019 21:00:00 12,1 3,3 8,9 7,4 10 5 18 10 O 1015,9 30 0,0
15.04.2019 20:00:00 14,4 3,2 13,0 7,3 13 7 30 16 O 1015,3 38 0,0
15.04.2019 19:00:00 15,7 3,1 16,9 7,2 17 9 32 17 O 1015,5 42 0,0
15.04.2019 18:00:00 16,1 3,2 18,6 7,1 19 10 36 20 O 1015,7 44 0,0
15.04.2019 17:00:00 16,3 4,0 19,9 7,1 21 12 37 20 O 1016,0 20 0,0
15.04.2019 16:00:00 15,6 4,0 20,5 7,0 18 10 38 20 ONO 1017,0 16 0,0
15.04.2019 15:00:00 14,3 3,4 18,0 7,0 16 9 33 18 O 1018,3 16 0,0
15.04.2019 14:00:00 13,3 4,2 17,3 7,0 18 10 42 23 O 1019,3 14 0,0
15.04.2019 13:00:00 11,6 3,1 15,7 7,0 22 12 44 24 O 1020,1 14 0,0
15.04.2019 12:00:00 10,6 2,7 14,8 7,1 23 13 37 20 O 1020,9 14 0,0
15.04.2019 11:00:00 8,2 1,8 11,0 7,1 15 8 30 16 ONO 1022,2 17 0,0
15.04.2019 10:00:00 6,1 0,8 8,5 7,2 17 9 32 17 ONO 1023,0 17 0,0
15.04.2019 09:00:00 5,1 0,7 2,7 7,2 13 7 22 12 ONO 1023,4 16 0,0
15.04.2019 08:00:00 0,7 -0,6 -4,7 7,3 3 2 8 4 NNW 1024,4 7 0,0
15.04.2019 07:00:00 -0,5 -1,9 -5,6 7,4 3 1 9 5 N 1024,5 6 0,0
15.04.2019 06:00:00 -0,3 -1,9 -5,3 7,4 3 2 16 9 NW 1024,5 5 0,0
15.04.2019 05:00:00 -0,4 -1,8 -6,5 7,4 3 2 9 5 NNO 1024,6 7 0,0
15.04.2019 04:00:00 -0,2 -1,6 -6,4 7,5 3 2 11 6 WNW 1024,8 5 0,0
15.04.2019 03:00:00 -0,8 -2,8 -5,6 7,5 6 3 9 5 WNW 1025,3 6 0,0
15.04.2019 02:00:00 1,4 -1,8 -5,5 7,5 4 2 8 4 NNW 1024,9 6 0,0
15.04.2019 01:00:00 1,4 -0,4 -5,2 7,5 4 2 6 3 NO 1024,9 6 0,0
15.04.2019 00:00:00 1,6 -0,8 -4,2 7,5 4 2 11 6 WNW 1024,7 6 0,0
14.04.2019 23:00:00 2,7 -0,8 -3,6 7,5 6 3 14 8 NO 1024,2 7 0,0
14.04.2019 22:00:00 4,1 -0,3 -3,6 7,5 9 5 13 7 ONO 1023,7 8 0,0
14.04.2019 21:00:00 3,3 -0,9 -3,5 7,5 5 3 9 5 N 1024,3 9 0,0
14.04.2019 20:00:00 5,7 -0,2 2,5 7,4 6 4 17 9 NO 1023,3 10 0,0
14.04.2019 19:00:00 6,7 -0,3 6,9 7,4 9 5 24 13 ONO 1022,8 11 0,0
14.04.2019 18:00:00 6,7 -0,5 7,2 7,4 14 8 26 14 ONO 1022,2 13 0,0
14.04.2019 17:00:00 7,1 -1,3 9,3 7,4 10 5 27 15 O 1021,9 19 0,0
14.04.2019 16:00:00 7,5 -1,2 8,0 7,4 14 8 29 16 ONO 1022,0 17 0,0
14.04.2019 15:00:00 5,3 -1,8 8,4 7,4 13 7 26 14 NO 1022,6 16 0,0
14.04.2019 14:00:00 4,5 -1,9 7,2 7,5 12 6 25 13 NNO 1022,6 16 0,0
14.04.2019 13:00:00 4,8 -1,2 7,0 7,5 13 7 25 13 N 1022,3 13 0,0
14.04.2019 12:00:00 3,3 -1,7 4,7 7,6 9 5 24 13 NO 1022,6 12 0,0
14.04.2019 11:00:00 1,6 -0,7 3,9 7,7 6 3 17 9 NNW 1022,6 7 0,0
14.04.2019 10:00:00 0,7 -0,3 0,0 7,7 7 4 11 6 N 1022,2 4,2 0,0
14.04.2019 09:00:00 -2,0 -2,7 -4,0 7,8 0 0 9 5 N 1022,6 2,7 0,0
14.04.2019 08:00:00 -3,4 -3,9 -10,2 7,9 4 2 10 5 ONO 1022,6 2,5 0,0
14.04.2019 07:00:00 -4,2 -4,9 -11,2 8,0 5 3 8 4 NW 1022,4 1,9 0,0
14.04.2019 06:00:00 -3,5 -4,0 -11,3 8,0 4 2 8 4 NNO 1022,2 2,3 0,0
14.04.2019 05:00:00 -4,3 -5,1 -10,4 8,1 6 3 9 5 NNW 1022,4 2,6 0,0
14.04.2019 04:00:00 -3,4 -4,2 -9,6 8,1 6 3 9 5 NW 1022,2 3,4 0,0
14.04.2019 03:00:00 -2,7 -3,5 -9,8 8,1 3 2 8 4 NNW 1022,0 4,1 0,0
14.04.2019 02:00:00 -2,5 -3,5 -9,2 8,1 3 1 9 5 N 1022,3 6 0,0
14.04.2019 01:00:00 -1,2 -2,6 -5,9 8,1 6 3 20 11 N 1022,4 11 0,0
14.04.2019 00:00:00 -0,8 -2,2 -5,5 8,2 9 5 14 7 NNW 1022,5 13 0,0
13.04.2019 23:00:00 -0,6 -1,9 -5,1 8,2 6 3 9 5 W 1022,7 8 0,0
13.04.2019 22:00:00 1,1 -0,5 -0,1 8,2 6 4 28 15 WNW 1022,8 12 0,2
13.04.2019 21:00:00 1,8 -1,1 0,4 8,2 19 10 35 19 N 1022,7 1,6 0,0
13.04.2019 20:00:00 4,4 -4,6 3,8 8,1 10 6 21 12 N 1021,3 35 0,0
13.04.2019 19:00:00 4,8 -5,0 5,0 8,1 11 6 23 13 NNO 1021,2 37 0,0
13.04.2019 18:00:00 5,3 -6,0 6,6 8,1 16 9 26 14 N 1021,2 32 0,0
13.04.2019 17:00:00 5,3 -5,1 7,0 8,1 18 10 27 15 N 1021,3 31 0,0
13.04.2019 16:00:00 5,2 -6,1 6,5 8,1 17 9 34 18 N 1021,6 30 0,0
13.04.2019 15:00:00 5,7 -6,6 9,1 8,1 18 10 37 20 N 1021,6 34 0,0
13.04.2019 14:00:00 5,6 -7,0 9,9 8,1 20 11 34 18 N 1021,4 31 0,0
13.04.2019 13:00:00 5,4 -5,9 8,3 8,2 14 8 29 16 N 1021,6 35 0,0
13.04.2019 12:00:00 4,5 -4,3 8,4 8,2 19 11 32 17 N 1022,0 20 0,0
13.04.2019 11:00:00 4,6 -3,0 8,6 8,2 19 11 32 17 N 1021,9 17 0,0
13.04.2019 10:00:00 3,5 -2,9 5,2 8,3 20 11 31 17 N 1022,0 19 0,0
13.04.2019 09:00:00 2,3 -2,4 1,7 8,4 13 7 21 11 NNW 1022,3 19 0,0
13.04.2019 08:00:00 1,2 -2,7 0,2 8,4 14 8 19 11 N 1022,3 20 0,0
13.04.2019 07:00:00 1,1 -2,8 0,0 8,4 11 6 16 9 N 1021,9 23 0,0
13.04.2019 06:00:00 1,8 -3,1 0,6 8,5 9 5 18 10 N 1021,4 22 0,0

tt = temperatuur
td = dauwpunt
tt 5cm = temperatuur 5cm
tt -20cm = temperatuur -20cm
ff = windsnelheid
fx = windstoten
dd = windrichting
ppp = luchtdruk
vv = zicht
rr = neerslag

Weerstations in de omgeving